FW7644 Weather Reports


time (UTC)temp
C
wind
direction
speed
KPH
gust
KPH
rain 1hr
cm
rain 24hr
cm
rain mn
cm
humidity
%
barometer
mb
20260506160748 30 0.0 0.0 0.00 0.00 0.00 44 1022.4
20260506160246 30 0.0 0.0 0.00 0.00 0.00 44 1022.6
20260506155744 30 0.0 0.0 0.00 0.00 0.00 44 1022.6
20260506155242 30 0.0 0.0 0.00 0.00 0.00 43 1022.8
20260506154741 28 0.0 0.0 0.00 0.00 0.00 46 1022.9
20260506154239 28 0.0 0.0 0.00 0.00 0.00 45 1023.1
20260506153737 30 0.0 0.0 0.00 0.00 0.00 46 1023.2
20260506153235 30 0.0 0.0 0.00 0.00 0.00 47 1023.3
20260506152734 28 0.0 0.0 0.00 0.00 0.00 50 1023.5
20260506152232 28 0.0 0.0 0.00 0.00 0.00 49 1023.5
20260506151730 28 0.0 0.0 0.00 0.00 0.00 49 1023.6
20260506151228 28 0.0 0.0 0.00 0.00 0.00 48 1023.8
20260506150726 28 0.0 0.0 0.00 0.00 0.00 48 1023.9
20260506150224 29 0.0 0.0 0.00 0.00 0.00 48 1023.9
20260506145722 28 0.0 0.0 0.00 0.00 0.00 52 1023.9
20260506145220 28 0.0 0.0 0.00 0.00 0.00 53 1024.0
20260506144718 28 0.0 0.0 0.00 0.00 0.00 54 1024.1
20260506144216 28 0.0 0.0 0.00 0.00 0.00 53 1024.1
20260506143714 28 0.0 0.0 0.00 0.00 0.00 54 1024.1
20260506143212 27 0.0 0.0 0.00 0.00 0.00 55 1024.2
20260506142711 27 0.0 0.0 0.00 0.00 0.00 57 1024.3
20260506142209 26 0.0 0.0 0.00 0.00 0.00 56 1024.3
20260506141708 27 0.0 0.0 0.00 0.00 0.00 52 1024.4
20260506141206 27 0.0 0.0 0.00 0.00 0.00 54 1024.5
20260506140704 27 0.0 0.0 0.00 0.00 0.00 55 1024.5
20260506140203 26 0.0 0.0 0.00 0.00 0.00 59 1024.5
20260506135701 27 0.0 0.0 0.00 0.00 0.00 56 1024.6
20260506135159 27 0.0 0.0 0.00 0.00 0.00 56 1024.7
20260506134658 26 0.0 0.0 0.00 0.00 0.00 58 1024.7
20260506134155 27 0.0 0.0 0.00 0.00 0.00 57 1024.8
20260506133653 27 0.0 0.0 0.00 0.00 0.00 60 1024.7
20260506133151 27 0.0 0.0 0.00 0.00 0.00 57 1024.8
20260506132649 27 0.0 0.0 0.00 0.00 0.00 58 1024.9
20260506132147 26 0.0 0.0 0.00 0.00 0.00 64 1024.9
20260506131645 26 0.0 0.0 0.00 0.00 0.00 65 1024.9
20260506131142 27 0.0 0.0 0.00 0.00 0.00 64 1025.1
20260506130640 27 0.0 0.0 0.00 0.00 0.00 66 1025.1
20260506130138 26 0.0 0.0 0.00 0.00 0.00 68 1025.1
20260506125636 25 0.0 0.0 0.00 0.00 0.00 72 1025.2
20260506125134 26 0.0 0.0 0.00 0.00 0.00 68 1025.1
20260506124632 26 0.0 0.0 0.00 0.00 0.00 69 1025.1
20260506124130 25 0.0 0.0 0.00 0.00 0.00 71 1025.1
20260506123628 25 0.0 0.0 0.00 0.00 0.00 72 1025.1
20260506123126 25 0.0 0.0 0.00 0.00 0.00 70 1025.1
20260506122624 25 0.0 0.0 0.00 0.00 0.00 71 1025.0
20260506122122 24 0.0 0.0 0.00 0.00 0.00 76 1025.0
20260506121621 23 0.0 0.0 0.00 0.00 0.00 77 1024.9
20260506121119 24 0.0 0.0 0.00 0.00 0.00 72 1025.0
20260506120617 23 0.0 0.0 0.00 0.00 0.00 74 1025.0
20260506120115 22 0.0 0.0 0.00 0.00 0.00 77 1025.0
20260506115613 22 0.0 0.0 0.00 0.00 0.00 77 1025.0
20260506115112 22 0.0 0.0 0.00 0.00 0.00 80 1024.9
20260506114610 22 0.0 0.0 0.00 0.00 0.00 76 1024.9
20260506114108 23 0.0 0.0 0.00 0.00 0.00 75 1024.8
20260506113607 21 0.0 0.0 0.00 0.00 0.00 82 1024.8
20260506113105 21 0.0 0.0 0.00 0.00 0.00 79 1024.8
20260506112603 22 0.0 0.0 0.00 0.00 0.00 75 1024.7
20260506112101 21 0.0 0.0 0.00 0.00 0.00 80 1024.7
20260506111600 21 0.0 0.0 0.00 0.00 0.00 79 1024.6
20260506111058 21 0.0 0.0 0.00 0.00 0.00 83 1024.6
20260506110557 21 0.0 0.0 0.00 0.00 0.00 86 1024.5
20260506110055 20 0.0 0.0 0.00 0.00 0.00 99 1024.5
20260506105554 18 0.0 0.0 0.00 0.00 0.00 99 1024.4
20260506105052 16 0.0 0.0 0.00 0.00 0.00 99 1024.4
20260506104550 15 0.0 0.0 0.00 0.00 0.00 99 1024.3
20260506104049 15 0.0 0.0 0.00 0.00 0.00 99 1024.2
20260506103547 14 0.0 0.0 0.00 0.00 0.00 99 1024.1
20260506103046 13 0.0 0.0 0.00 0.00 0.00 99 1024.2
20260506102544 13 0.0 0.0 0.00 0.00 0.00 99 1024.1
20260506102043 13 0.0 0.0 0.00 0.00 0.00 99 1024.0
20260506101541 13 0.0 0.0 0.00 0.00 0.00 99 1023.9
20260506101039 12 0.0 0.0 0.00 0.00 0.00 99 1024.0
20260506100538 12 0.0 0.0 0.00 0.00 0.00 99 1024.0
20260506100036 12 0.0 0.0 0.00 0.00 0.00 99 1024.0
20260506095534 12 0.0 0.0 0.00 0.00 0.00 99 1023.9
20260506095032 12 0.0 0.0 0.00 0.00 0.00 99 1024.0
20260506094531 12 0.0 0.0 0.00 0.00 0.00 99 1023.8
20260506094029 12 0.0 0.0 0.00 0.00 0.00 99 1023.8
20260506093527 12 0.0 0.0 0.00 0.00 0.00 99 1023.7
20260506093026 12 0.0 0.0 0.00 0.00 0.00 99 1023.6
20260506092524 12 0.0 0.0 0.00 0.00 0.00 99 1023.6
20260506092022 12 0.0 0.0 0.00 0.00 0.00 99 1023.6
20260506091521 12 0.0 0.0 0.00 0.00 0.00 99 1023.5
20260506091019 12 0.0 0.0 0.00 0.00 0.00 99 1023.3
20260506090517 12 0.0 0.0 0.00 0.00 0.00 99 1023.2
20260506090016 12 0.0 0.0 0.00 0.00 0.00 99 1023.2
20260506085514 12 0.0 0.0 0.00 0.00 0.00 99 1023.2
20260506085013 12 0.0 0.0 0.00 0.00 0.00 99 1023.2
20260506084511 12 0.0 0.0 0.00 0.00 0.00 99 1023.0
20260506084010 12 0.0 0.0 0.00 0.00 0.00 99 1023.0
20260506083508 12 0.0 0.0 0.00 0.00 0.00 99 1023.0
20260506083006 12 0.0 0.0 0.00 0.00 0.00 99 1023.0
20260506082505 12 0.0 0.0 0.00 0.00 0.00 99 1023.0
20260506082003 12 0.0 0.0 0.00 0.00 0.00 99 1022.9
20260506081502 13 0.0 0.0 0.00 0.00 0.00 99 1022.8
20260506080959 13 0.0 0.0 0.00 0.00 0.00 99 1022.9
20260506080458 13 0.0 0.0 0.00 0.00 0.00 99 1022.9
20260506073448 13 0.0 0.0 0.00 0.00 0.00 99 1022.4
20260506072946 13 0.0 0.0 0.00 0.00 0.00 99 1022.3
20260506072445 13 0.0 0.0 0.00 0.00 0.00 99 1022.3
20260506071943 13 0.0 0.0 0.00 0.00 0.00 99 1022.3
20260506071442 13 0.0 0.0 0.00 0.00 0.00 99 1022.3
20260506070940 13 0.0 0.0 0.00 0.00 0.00 99 1022.3
20260506070439 13 0.0 0.0 0.00 0.00 0.00 99 1022.2
20260506062426 13 0.0 0.0 0.00 0.00 0.00 99 1022.4
20260506061925 13 0.0 0.0 0.00 0.00 0.00 99 1022.4
20260506061423 13 0.0 0.0 0.00 0.00 0.00 99 1022.5
20260506060921 13 0.0 0.0 0.00 0.00 0.00 99 1022.6
20260506060420 13 0.0 0.0 0.00 0.00 0.00 99 1022.7
20260506051405 13 0.0 0.0 0.00 0.00 0.00 99 1023.1
20260506050903 13 0.0 0.0 0.00 0.00 0.00 99 1023.1
20260506050401 14 0.0 0.0 0.00 0.00 0.00 99 1023.1
20260506044857 14 0.0 0.0 0.00 0.00 0.00 99 1023.1
20260506044355 14 0.0 0.0 0.00 0.00 0.00 99 1023.2
20260506043854 14 0.0 0.0 0.00 0.00 0.00 99 1023.2
20260506043352 15 0.0 0.0 0.00 0.00 0.00 99 1023.2
20260506042850 14 0.0 0.0 0.00 0.00 0.00 99 1023.2
20260506042349 14 0.0 0.0 0.00 0.00 0.00 99 1023.2
20260506041848 14 0.0 0.0 0.00 0.00 0.00 99 1023.2
20260506041346 14 0.0 0.0 0.00 0.00 0.00 99 1023.2
20260506040844 14 0.0 0.0 0.00 0.00 0.00 99 1023.2
20260506040343 14 0.0 0.0 0.00 0.00 0.00 99 1023.2
20260506035841 15 0.0 0.0 0.00 0.00 0.00 99 1023.3
20260506035339 15 0.0 0.0 0.00 0.00 0.00 99 1023.3
20260506034838 15 0.0 0.0 0.00 0.00 0.00 99 1023.2
20260506034336 15 0.0 0.0 0.00 0.00 0.00 99 1023.3
20260506033835 15 0.0 0.0 0.00 0.00 0.00 99 1023.2
20260506033334 15 0.0 0.0 0.00 0.00 0.00 99 1023.2
20260506032832 15 0.0 0.0 0.00 0.00 0.00 99 1023.3
20260506032331 15 0.0 0.0 0.00 0.00 0.00 99 1023.3
20260506031829 15 0.0 0.0 0.00 0.00 0.00 99 1023.4
20260506031328 15 0.0 0.0 0.00 0.00 0.00 99 1023.5
20260506030826 15 0.0 0.0 0.00 0.00 0.00 99 1023.6
20260506030324 15 0.0 0.0 0.00 0.00 0.00 99 1023.6
20260506025823 15 0.0 0.0 0.00 0.00 0.00 99 1023.6
20260506025321 15 0.0 0.0 0.00 0.00 0.00 99 1023.6
20260506024819 15 0.0 0.0 0.00 0.00 0.00 99 1023.7
20260506024318 15 0.0 0.0 0.00 0.00 0.00 99 1023.7
20260506023816 15 0.0 0.0 0.00 0.00 0.00 99 1023.8
20260506023315 15 0.0 0.0 0.00 0.00 0.00 99 1023.8
20260506022814 15 0.0 0.0 0.00 0.00 0.00 99 1023.9
20260506022312 15 0.0 0.0 0.00 0.00 0.00 99 1023.9
20260506021811 15 0.0 0.0 0.00 0.00 0.00 99 1023.9
20260506021309 15 0.0 0.0 0.00 0.00 0.00 99 1023.9
20260506020807 15 0.0 0.0 0.00 0.00 0.00 99 1024.0
20260506020306 15 0.0 0.0 0.00 0.00 0.00 99 1024.0
20260506015804 15 0.0 0.0 0.00 0.00 0.00 99 1023.9
20260506015305 15 0.0 0.0 0.00 0.00 0.00 99 1023.9
20260506014800 15 0.0 0.0 0.00 0.00 0.00 99 1023.9
20260506014259 15 0.0 0.0 0.00 0.00 0.00 99 1023.9
20260506013757 15 0.0 0.0 0.00 0.00 0.00 99 1024.1
20260506013256 16 0.0 0.0 0.00 0.00 0.00 99 1024.1
20260506012754 16 0.0 0.0 0.00 0.00 0.00 99 1024.2
20260506012253 16 0.0 0.0 0.00 0.00 0.00 99 1024.2
20260506011752 16 0.0 0.0 0.00 0.00 0.00 99 1024.1
20260506011250 16 0.0 0.0 0.00 0.00 0.00 99 1024.0
20260506010748 16 0.0 0.0 0.00 0.00 0.00 99 1024.0
20260506010246 16 0.0 0.0 0.00 0.00 0.00 99 1024.0
20260506005744 16 0.0 0.0 0.00 0.00 0.00 99 1024.0
20260506005242 16 0.0 0.0 0.00 0.00 0.00 99 1024.0
20260506004740 16 0.0 0.0 0.00 0.00 0.00 99 1024.0
20260506004239 16 0.0 0.0 0.00 0.00 0.00 99 1024.0
20260506003737 16 0.0 0.0 0.00 0.00 0.00 99 1023.9
20260506003235 16 0.0 0.0 0.00 0.00 0.00 99 1023.9
20260506002733 16 0.0 0.0 0.00 0.00 0.00 99 1023.9
20260506002232 16 0.0 0.0 0.00 0.00 0.00 99 1023.9
20260506001730 16 0.0 0.0 0.00 0.00 0.00 99 1023.9
20260506001228 16 0.0 0.0 0.00 0.00 0.00 99 1023.9
20260506000726 17 0.0 0.0 0.00 0.00 0.00 99 1023.8
20260506000226 17 0.0 0.0 0.00 0.00 0.00 99 1023.8
20260505235722 17 0.0 0.0 0.00 0.00 0.00 99 1023.8
20260505235220 17 0.0 0.0 0.00 0.00 0.00 99 1023.8
20260505234718 17 0.0 0.0 0.00 0.00 0.00 99 1023.8
20260505234216 17 0.0 0.0 0.00 0.00 0.00 99 1023.8
20260505233714 17 0.0 0.0 0.00 0.00 0.00 99 1023.8
20260505233212 17 0.0 0.0 0.00 0.00 0.00 99 1023.7
20260505232710 17 0.0 0.0 0.00 0.00 0.00 99 1023.7
20260505232209 17 0.0 0.0 0.00 0.00 0.00 99 1023.7
20260505231707 17 0.0 0.0 0.00 0.00 0.00 99 1023.6
20260505231205 17 0.0 0.0 0.00 0.00 0.00 99 1023.6
20260505230703 18 0.0 0.0 0.00 0.00 0.00 99 1023.6
20260505230201 18 0.0 0.0 0.00 0.00 0.00 99 1023.6
20260505225700 18 0.0 0.0 0.00 0.00 0.00 99 1023.5
20260505225158 18 0.0 0.0 0.00 0.00 0.00 99 1023.5
20260505224656 18 0.0 0.0 0.00 0.00 0.00 99 1023.4
20260505224155 18 0.0 0.0 0.00 0.00 0.00 99 1023.3
20260505223653 18 0.0 0.0 0.00 0.00 0.00 99 1023.3
20260505223152 18 0.0 0.0 0.00 0.00 0.00 99 1023.3
20260505222650 18 0.0 0.0 0.00 0.00 0.00 99 1023.2
20260505222148 18 0.0 0.0 0.00 0.00 0.00 99 1023.2
20260505221646 18 0.0 0.0 0.00 0.00 0.00 99 1023.1
20260505221145 18 0.0 0.0 0.00 0.00 0.00 99 1023.1
20260505220643 19 0.0 0.0 0.00 0.00 0.00 99 1023.1
20260505220141 19 0.0 0.0 0.00 0.00 0.00 99 1023.1
20260505215640 19 0.0 0.0 0.00 0.00 0.00 99 1023.1
20260505215138 20 0.0 0.0 0.00 0.00 0.00 99 1023.1
20260505214637 20 0.0 0.0 0.00 0.00 0.00 99 1023.0
20260505214135 20 0.0 0.0 0.00 0.00 0.00 99 1023.0
20260505213633 20 0.0 0.0 0.00 0.00 0.00 98 1023.0
20260505213131 20 0.0 0.0 0.00 0.00 0.00 96 1023.0
20260505212629 20 0.0 0.0 0.00 0.00 0.00 94 1022.9
20260505212128 20 0.0 0.0 0.00 0.00 0.00 91 1022.9
20260505211626 20 0.0 0.0 0.00 0.00 0.00 89 1022.8
20260505211124 21 0.0 0.0 0.00 0.00 0.00 87 1022.8
20260505210622 21 0.0 0.0 0.00 0.00 0.00 84 1022.8
20260505210120 21 0.0 0.0 0.00 0.00 0.00 80 1022.7
20260505205618 22 0.0 0.0 0.00 0.00 0.00 77 1022.6
20260505205116 22 0.0 0.0 0.00 0.00 0.00 74 1022.6
20260505204614 22 0.0 0.0 0.00 0.00 0.00 70 1022.5
20260505204113 23 0.0 0.0 0.00 0.00 0.00 67 1022.4
20260505203611 23 0.0 0.0 0.00 0.00 0.00 66 1022.4
20260505203110 23 0.0 0.0 0.00 0.00 0.00 64 1022.4
20260505202608 23 0.0 0.0 0.00 0.00 0.00 62 1022.4
20260505202106 24 0.0 0.0 0.00 0.00 0.00 61 1022.3
20260505201604 25 0.0 0.0 0.00 0.00 0.00 60 1022.3
20260505201102 25 0.0 0.0 0.00 0.00 0.00 59 1022.3
20260505200600 25 0.0 0.0 0.00 0.00 0.00 57 1022.3
20260505200058 25 0.0 0.0 0.00 0.00 0.00 57 1022.4
20260505195556 25 0.0 0.0 0.00 0.00 0.00 56 1022.4
20260505195055 26 0.0 0.0 0.00 0.00 0.00 52 1022.3
20260505194553 26 0.0 0.0 0.00 0.00 0.00 52 1022.3
20260505194051 26 0.0 0.0 0.00 0.00 0.00 54 1022.3
20260505193549 25 0.0 0.0 0.00 0.00 0.00 54 1022.2
20260505193047 25 0.0 0.0 0.00 0.00 0.00 54 1022.2
20260505192545 25 0.0 0.0 0.00 0.00 0.00 53 1022.2
20260505192044 26 0.0 0.0 0.00 0.00 0.00 52 1022.1
20260505191542 26 0.0 0.0 0.00 0.00 0.00 51 1022.1
20260505191041 27 0.0 0.0 0.00 0.00 0.00 48 1022.2
20260505190539 28 0.0 0.0 0.00 0.00 0.00 45 1022.2
20260505190037 29 0.0 0.0 0.00 0.00 0.00 44 1022.3
20260505185536 29 0.0 0.0 0.00 0.00 0.00 44 1022.3
20260505185034 29 0.0 0.0 0.00 0.00 0.00 44 1022.4
20260505184532 29 0.0 0.0 0.00 0.00 0.00 42 1022.4
20260505184031 30 0.0 0.0 0.00 0.00 0.00 42 1022.3
20260505183528 30 0.0 0.0 0.00 0.00 0.00 42 1022.3
20260505183027 30 0.0 0.0 0.00 0.00 0.00 42 1022.4
20260505182525 28 0.0 0.0 0.00 0.00 0.00 44 1022.3
20260505182023 28 0.0 0.0 0.00 0.00 0.00 45 1022.4
20260505181521 28 0.0 0.0 0.00 0.00 0.00 44 1022.4
20260505181020 29 0.0 0.0 0.00 0.00 0.00 44 1022.4
20260505180518 30 0.0 0.0 0.00 0.00 0.00 40 1022.5
20260505180016 29 0.0 0.0 0.00 0.00 0.00 42 1022.4
20260505175515 28 0.0 0.0 0.00 0.00 0.00 45 1022.4
20260505175013 26 0.0 0.0 0.00 0.00 0.00 51 1022.5
20260505174511 26 0.0 0.0 0.00 0.00 0.00 50 1022.5
20260505174009 26 0.0 0.0 0.00 0.00 0.00 49 1022.6
20260505173508 27 0.0 0.0 0.00 0.00 0.00 48 1022.6
20260505173006 27 0.0 0.0 0.00 0.00 0.00 48 1022.7
20260505172505 27 0.0 0.0 0.00 0.00 0.00 46 1022.7
20260505172003 28 0.0 0.0 0.00 0.00 0.00 43 1022.7
20260505171501 28 0.0 0.0 0.00 0.00 0.00 46 1022.7
20260505171000 27 0.0 0.0 0.00 0.00 0.00 47 1022.7
20260505170458 27 0.0 0.0 0.00 0.00 0.00 46 1022.7
20260505165956 29 0.0 0.0 0.00 0.00 0.00 44 1022.7
20260505165454 27 0.0 0.0 0.00 0.00 0.00 48 1022.7
20260505164952 28 0.0 0.0 0.00 0.00 0.00 46 1022.8
20260505164451 26 0.0 0.0 0.00 0.00 0.00 50 1022.9
20260505163949 26 0.0 0.0 0.00 0.00 0.00 50 1022.9
20260505163448 26 0.0 0.0 0.00 0.00 0.00 51 1023.0
20260505162946 28 0.0 0.0 0.00 0.00 0.00 47 1022.9
20260505162445 29 0.0 0.0 0.00 0.00 0.00 45 1023.0
20260505161943 28 0.0 0.0 0.00 0.00 0.00 45 1023.1
20260505161441 30 0.0 0.0 0.00 0.00 0.00 45 1023.1